LiveATC.Net - Listen to live air traffic control over the Internet!


ICAO: ULLI  IATA: LED   Airport: Pulkovo Airport
City: Saint Petersburg
Country: Russia   Continent: Europe
ULLI METAR Weather: ULLI 160430Z 12004MPS 100V170 9999 OVC010 01/M01 Q1001 R10R/290050 NOSIG
ULLI Flight Activity (FlightAware)
ULLI Gnd/Twr/App
Feed Status: DOWN
Last heard on: 2017-10-04 18:56:03 (72 days 10 hours 28 minutes ago)
ULLI Gnd/Twr/App Audio Archives
FacilityFrequency
Circle120.300
St. Petersburg Approach119.300
St. Petersburg Approach125.900
St. Petersburg Control135.600
St. Petersburg Tower118.100
St. Petersburg Tower118.700
St. Petersburg Transit131.800


NOTICE

Unauthorized use prohibited. See LiveATC.net Terms of Service


Find LiveATC Audio Streams


Airport/ARTCC Code

Frequency Search
(e.g., 124.400, 128.75)
Site-wide search
 


Browse LiveATC Feeds
LiveATC Coverage Map
Top 50 LiveATC Feeds
Bad Weather Areas

LiveATC FAQ
Offer a LiveATC Feed
Contact LiveATC.net
Press Inquiries

LiveATC on iPhone
LiveATC on Android

Windows Phone
Windows 8/10

LiveATC Mobile
(Mobile browser)

ATC Audio Archives
Interesting Recordings

LiveATC Forums


Home Page
About LiveATC.net
Make a Donation
Terms of Use
Privacy Policy

Canadian Air Freqs

AIRMETs/SIGMETs

FAA Airport Status
Nat'l Airspace Status
Arrival Demand Charts


Server Software By:
Icecast.org
Liquidsoap